Tracking 31027 objects as of 19-Jul-2025
HD Live streaming from Space Station
objects crossing your sky now

STARLINK-6316

Track STARLINK-6316 now!
10-day predictions
STARLINK-6316 is classified as:


NORAD ID: 57335
Int'l Code: 2023-099H
Perigee: 565.5 km
Apogee: 567.0 km
Inclination: 43.0 °
Period: 95.8 minutes
Semi major axis: 6937 km
RCS: Unknown
Launch date: July 16, 2023
Source: United States (US)
Launch site: AIR FORCE EASTERN TEST RANGE (AFETR)
Your satellite tracking list
Your tracking list is empty




NASA's NSSDC Master Catalog

Two Line Element Set (TLE):
1 57335U 23099H   25199.40365093 -.00000005  00000-0  14674-4 0  9994
2 57335  43.0039  82.0436 0001087 257.4269 102.6452 15.02534003110878
Source of the keplerian elements: AFSPC